Portada
METAR-TAF:

METAR-TAF

Aeropuertos :

West Plains Municipal Airport

West Plains, Misuri, Estados Unidos

latitud: 36-52-45N, longitud: 091-54-18W, altitud: 374 m

Observación

El informe se hizo hace 29 minutos, a las 20:53 UTC
Viento 6 kt del sureste
Temperatura 31°C
Humedad 49%
Presión 1023 hPa
Visibilidad: 16.1 km
Escasas nubes a una altura de 4200 ft

METAR: KUNO 192053Z AUTO 14006KT 10SM FEW042 31/19 A3021 RMK AO2 SLP213 T03060194 56012

Hora: 16:22 (21:22 UTC)


TAF: falta

Observaciones y pronósticos meteorológicos de más de 4000 aeropuertos (mensajes METAR y TAF).

Los puntos amarillos y rojos representan las estaciones disponibles.

Ponga el ratón en el punto deseado para ver el nombre de la estación.

Haga clic para ver las observaciones y los pronósticos meteorológicos.

Para cambiar el mapa : haga clic en los botones verdes con una cruz de color negro para hacer un zoom, en el botón verde con un guión para alejar o en las flechas verdes para mapas adyacentes.


METAR-TAF: